{"data":{"norad_id":48289,"epoch":"2026-09-19T11:07:38.233344Z","epoch_age_seconds":123188,"freshness":"FRESH","line1":"1 48289U 21036P   26262.46363696  .00001525  00000+0  60902-4 0  9997","line2":"2 48289  53.1589 253.8996 0001386 106.2690 253.8464 15.31706145298091","mean_motion":15.31706145,"eccentricity":0.0001386,"inclination_deg":53.1589,"raan_deg":253.8996,"arg_perigee_deg":106.269,"mean_anomaly_deg":253.8464,"bstar":6.0902e-5,"rev_number":29809,"period_min":94.012810792765,"perigee_km":469.77242554897,"apogee_km":471.67092917433,"semimajor_km":6848.8586773616,"source":"CELESTRAK","updated_at":"2026-09-20T09:00:38.929768Z"}}